Home > Weather > Dornbirn > Past weeks

Flag for Austria Past Weather in Dornbirn, Vorarlberg, Austria — Yesterday and Last 2 Weeks

Now
66 °F

Mild.


Feels Like: 66 °F
Forecast: 58 / 76 °F
Wind: 6 mph from South

Location: Bregenz

Current Time: Aug 29, 2016 at 9:28:48 AM

Latest Report: Aug 29, 2016 at 9:00 AM


Visibility: N/A

Pressure: 30.10 "Hg

Humidity: 88%

Dew Point: 62 °F

Location of DornbirnLocation

Past Weather in Dornbirn — Graph

°F

Dornbirn Temperature Yesterday

Maximum temperature yesterday: 88 °F (at 5:00 PM)
Minimum temperature yesterday: 67 °F (at 7:00 AM)
Average temperature yesterday: 78 °F

High & Low Weather Summary for the Past Weeks

 TemperatureHumidityPressure
High89 °F (Aug 26, 6:00 PM)96% (Aug 25, 7:00 AM)30.40 "Hg (Aug 25, 7:00 AM)
Low53 °F (Aug 23, 6:00 AM)38% (Aug 22, 3:00 PM)29.79 "Hg (Aug 17, 7:00 PM)
Average69 °F73%30.05 "Hg
* Reported Aug 14 8:00 AM — Aug 29 8:00 AM, Dornbirn, Weather by CustomWeather, © 2016

Note: Actual official high and low records may vary slightly from our data, if they occured in-between our weather recording intervals... More about our weather records

Advertising

Dornbirn Weather History for the Previous 24 Hours

Scroll right to see more
 ConditionsComfort  
Time TempWeatherWind HumidityBarometerVisibility
8:00 AM
Mon, Aug 29
67 °FOvercast.1 mph95%30.08 "Hg9 mi
7:00 AM65 °FThunderstorms. Overcast.2 mph96%30.07 "Hg9 mi
6:00 AM65 °FMild.2 mph92%30.06 "HgN/A
5:00 AM66 °FMild.1 mph91%30.06 "HgN/A
4:00 AM69 °FFog.2 mph85%30.05 "HgN/A
3:00 AM71 °FMild.1 mph72%30.04 "HgN/A
2:00 AM72 °FMild.2 mph67%30.03 "HgN/A
1:00 AM73 °FMild.2 mph69%30.05 "HgN/A
12:00 AM72 °FMild.1 mph67%30.02 "HgN/A
11:00 PM
Sun, Aug 28
73 °FMild.2 mph69%30.03 "HgN/A
10:00 PM74 °FMild.No wind70%30.01 "HgN/A
9:00 PM74 °FMild.2 mph69%29.99 "HgN/A
8:00 PM76 °FMild.2 mph64%29.96 "HgN/A
7:00 PM82 °FWarm.1 mph55%29.94 "HgN/A
6:00 PM87 °FWarm.1 mph50%29.94 "HgN/A
5:00 PM88 °FHot.2 mph38%29.95 "HgN/A
4:00 PM87 °FPleasantly warm.1 mph39%29.96 "HgN/A
3:00 PM87 °FWarm.2 mph40%29.97 "HgN/A
2:00 PM85 °FPassing clouds.2 mph40%29.99 "Hg19 mi
1:00 PM83 °FWarm.1 mph41%30.01 "HgN/A
12:00 PM81 °FWarm.2 mph52%30.03 "HgN/A
11:00 AM80 °FPassing clouds.1 mph51%30.04 "Hg17 mi
10:00 AM76 °FMild.2 mph59%30.05 "HgN/A
9:00 AM74 °FMild.3 mph63%30.06 "HgN/A
Weather by CustomWeather, © 2016

See weather overviewHow to use our weather pages